Caumont Avignon, France

7:10 PM CET on November 18, 2017 (GMT +0100)
Caumont

Weather History for LFMV - June, 2013

Change the Weather History Date:

Saturday, June 15, 2013

  Actual Average Record
Temperature  
Mean Temperature 73 °F -  
Max Temperature 87 °F - - ()
Min Temperature 59 °F - - ()
Cooling Degree Days 8    
Growing Degree Days 23 (Base 50)    
Moisture  
Dew Point 60 °F    
Average Humidity 68    
Maximum Humidity 94    
Minimum Humidity 35    
Precipitation  
Precipitation 0.00 in - - ()
Sea Level Pressure  
Sea Level Pressure 30.02 in    
Wind  
Wind Speed 3 mph ()    
Max Wind Speed 14 mph    
Max Gust Speed -    
Visibility 6.2 miles    
Events      
T = Trace of Precipitation, MM = Missing Value Source: Averaged Metar Reports

Daily Weather History Graph

Daily Weather History Graph

Search for Another Location

Airport or City:

Trip Planner

Search our weather history database for the weather conditions in past years. The results will help you decide how hot, cold, wet, or windy it might be!

Date:

Astronomy

Jun. 15, 2013 Rise Set
Actual Time 5:57 AM CEST 9:24 PM CEST
Civil Twilight 5:21 AM CEST 10:00 PM CEST
Nautical Twilight 4:33 AM CEST 10:48 PM CEST
Astronomical Twilight 3:33 AM CEST 11:48 PM CEST
Moon 12:27 PM CEST (6/15) 12:41 AM CEST (6/15)
Length of Visible Light 16h 39m
Length of Day
15h 27m
Waxing Crescent, 37% of the Moon is Illuminated
Jun 15
Waxing Crescent
Jun 16
First Quarter
Jun 23
Full
Jun 30
Last Quarter
Jul 8
New

Hourly Weather History & Observations

Time (CEST) Temp. Heat Index Dew Point Humidity Pressure Visibility Wind Dir Wind Speed Gust Speed Precip Events Conditions
12:00 AM 64.4 °F - 57.2 °F 77% 30.04 in 6.2 mi South 2.3 mph - N/A   Unknown
12:30 AM 62.6 °F - 57.2 °F 82% 30.04 in 6.2 mi Variable 2.3 mph - N/A   Unknown
1:00 AM 60.8 °F - 57.2 °F 88% 30.04 in 6.2 mi East 2.3 mph - N/A   Unknown
1:30 AM 60.8 °F - 57.2 °F 88% 30.04 in 6.2 mi Calm Calm - N/A   Unknown
2:00 AM 60.8 °F - 55.4 °F 82% 30.04 in 6.2 mi Calm Calm - N/A   Unknown
2:30 AM 59.0 °F - 57.2 °F 94% 30.04 in 6.2 mi East 1.2 mph - N/A   Unknown
3:00 AM 59.0 °F - 55.4 °F 88% 30.04 in 6.2 mi ESE 3.5 mph - N/A   Unknown
3:30 AM 59.0 °F - 55.4 °F 88% 30.04 in 6.2 mi Variable 1.2 mph - N/A   Unknown
4:00 AM 59.0 °F - 57.2 °F 94% 30.04 in 6.2 mi Calm Calm - N/A   Unknown
4:30 AM 59.0 °F - 57.2 °F 94% 30.04 in 6.2 mi Calm Calm - N/A   Unknown
5:00 AM 59.0 °F - 55.4 °F 88% 30.04 in 6.2 mi Calm Calm - N/A   Unknown
5:30 AM 59.0 °F - 57.2 °F 94% 30.01 in 6.2 mi SE 2.3 mph - N/A   Unknown
6:00 AM 59.0 °F - 57.2 °F 94% 30.01 in 6.2 mi South 2.3 mph - N/A   Unknown
6:30 AM 59.0 °F - 57.2 °F 94% 30.01 in 6.2 mi South 2.3 mph - N/A   Unknown
7:00 AM 60.8 °F - 57.2 °F 88% 30.01 in 6.2 mi Calm Calm - N/A   Unknown
7:30 AM 64.4 °F - 59.0 °F 83% 30.04 in 6.2 mi Calm Calm - N/A   Unknown
8:00 AM 68.0 °F - 59.0 °F 73% 30.04 in 6.2 mi Variable 1.2 mph - N/A   Unknown
8:30 AM 69.8 °F - 60.8 °F 73% 30.04 in 6.2 mi Calm Calm - N/A   Unknown
9:00 AM 69.8 °F - 60.8 °F 73% 30.04 in 6.2 mi Variable 2.3 mph - N/A   Unknown
9:30 AM 69.8 °F - 60.8 °F 73% 30.04 in 6.2 mi Variable 2.3 mph - N/A   Unknown
10:00 AM 73.4 °F - 60.8 °F 65% 30.04 in 6.2 mi Variable 2.3 mph - N/A   Unknown
10:30 AM 75.2 °F - 62.6 °F 65% 30.04 in 6.2 mi NW 4.6 mph - N/A   Unknown
11:00 AM 77.0 °F - 60.8 °F 57% 30.04 in 6.2 mi Variable 3.5 mph - N/A   Unknown
11:30 AM 77.0 °F - 59.0 °F 54% 30.04 in 6.2 mi Variable 3.5 mph - N/A   Unknown
12:00 PM 80.6 °F 81.8 °F 62.6 °F 54% 30.04 in 6.2 mi NNW 4.6 mph - N/A   Unknown
12:30 PM 80.6 °F 81.5 °F 60.8 °F 51% 30.04 in 6.2 mi Variable 4.6 mph - N/A   Unknown
1:00 PM 82.4 °F 82.9 °F 60.8 °F 48% 30.01 in 6.2 mi North 4.6 mph - N/A   Unknown
1:30 PM 84.2 °F 84.4 °F 60.8 °F 45% 30.01 in 6.2 mi WNW 3.5 mph - N/A   Unknown
2:00 PM 84.2 °F 85.0 °F 62.6 °F 48% 30.01 in 6.2 mi Variable 3.5 mph - N/A   Unknown
2:30 PM 84.2 °F 84.4 °F 60.8 °F 45% 30.01 in 6.2 mi NNW 4.6 mph - N/A   Unknown
3:00 PM 86.0 °F 86.6 °F 62.6 °F 45% 29.98 in 6.2 mi ENE 4.6 mph - N/A   Unknown
3:30 PM 86.0 °F 86.1 °F 60.8 °F 43% 29.98 in 6.2 mi Variable 5.8 mph - N/A   Unknown
4:00 PM 87.8 °F 86.5 °F 57.2 °F 35% 29.98 in 6.2 mi West 4.6 mph - N/A   Unknown
4:30 PM 87.8 °F 87.1 °F 59.0 °F 38% 29.98 in 6.2 mi WNW 5.8 mph - N/A   Unknown
5:00 PM 86.0 °F 87.3 °F 64.4 °F 48% 29.98 in 6.2 mi WSW 12.7 mph - N/A   Unknown
5:30 PM 84.2 °F 85.6 °F 64.4 °F 51% 29.98 in 6.2 mi SW 12.7 mph - N/A   Unknown
6:00 PM 84.2 °F 85.6 °F 64.4 °F 51% 29.98 in 6.2 mi SW 10.4 mph - N/A   Unknown
6:30 PM 82.4 °F 83.4 °F 62.6 °F 51% 29.98 in 6.2 mi SW 13.8 mph - N/A   Unknown
7:00 PM 80.6 °F 81.8 °F 62.6 °F 54% 29.98 in 6.2 mi SW 11.5 mph - N/A   Unknown
7:30 PM 80.6 °F 81.8 °F 62.6 °F 54% 29.98 in 6.2 mi SSW 10.4 mph - N/A   Unknown
8:00 PM 78.8 °F - 62.6 °F 57% 29.98 in 6.2 mi SW 10.4 mph - N/A   Unknown
8:30 PM 77.0 °F - 62.6 °F 61% 29.98 in 6.2 mi SSW 8.1 mph - N/A   Unknown
9:00 PM 75.2 °F - 62.6 °F 65% 30.01 in 6.2 mi SSW 6.9 mph - N/A   Unknown
9:30 PM 73.4 °F - 62.6 °F 69% 30.01 in 6.2 mi SSW 6.9 mph - N/A   Unknown
10:00 PM 71.6 °F - 62.6 °F 73% 30.01 in 6.2 mi South 6.9 mph - N/A   Unknown
10:30 PM 69.8 °F - 62.6 °F 78% 30.01 in 6.2 mi SSE 4.6 mph - N/A   Unknown
11:00 PM 69.8 °F - 62.6 °F 78% 30.04 in 6.2 mi SSE 4.6 mph - N/A   Unknown
11:30 PM 69.8 °F - 60.8 °F 73% 30.04 in 6.2 mi SE 4.6 mph - N/A   Unknown